This demonstration page uses our WeatherBlox Daily Observations layout. Learn more.

Left ArrowRight Arrow

41.55636, -103.73856

Hourly Observations for May 9, 2019

Temp ( °F °C ) Dew Point ( °F °C ) Humidity (%) Winds ( mph kmh ) Pressure ( in mb ) Visibility ( mi km ) Precip ( " mm )
6:58 pm 18:58 Cloudy with Light Rain 34 1.1 31 -0.6 89 89 NNE 18 30 30.14 1021 10 16 0.00 0.00
7:58 pm 19:58 Cloudy with Light Rain 33 0.8 31 -0.5 91 91 NNE 18 30 30.14 1021 10 16 0.00 0.00
8:58 pm 20:58 Cloudy with Light Rain 33 0.4 31 -0.7 92 92 NNE 15 24 30.19 1022 10 16 0.00 0.00
9:58 pm 21:58 Mostly Cloudy with Light Rain 32 0.2 31 -0.6 94 94 NNE 17 28 30.20 1023 10 16 0.00 0.00
11:59 pm 23:59 Mostly Cloudy with Light Rain/Snow 32 0 31 -0.6 96 96 N 16 26 30.23 1024 3 4 0.01 0.25
12:58 am 00:58 Mostly Cloudy with Light Rain/Snow 32 -0.2 31 -0.8 96 96 NNE 8 13 30.25 1024 1 2 0.00 0.00
1:58 am 01:58 Mostly Cloudy with Light Showers 32 -0.1 30 -0.9 94 94 NNE 13 20 30.23 1024 6 10 0.00 0.00
2:58 am 02:58 Mostly Cloudy with Light Rain/Snow 32 -0.1 31 -0.8 95 95 N 9 15 30.18 1022 1 1 0.00 0.00
3:58 am 03:58 Mostly Cloudy with Light Showers 32 -0.1 31 -0.8 95 95 N 8 13 30.20 1023 1 2 0.00 0.00
4:58 am 04:58 Mostly Cloudy with Light Snow 31 -0.5 30 -1.1 96 96 NNW 10 17 30.19 1022 7 11 0.01 0.25
5:58 am 05:58 Mostly Cloudy with Light Snow 31 -0.5 30 -1.1 96 96 NNW 7 11 30.20 1023 1 2 0.03 0.76
6:58 am 06:58 Mostly Cloudy with Light Snow 31 -0.3 30 -0.9 96 96 N 8 13 30.22 1023 3 5 0.03 0.76
7:58 am 07:58 Mostly Cloudy with Light Snow 32 -0.1 31 -0.8 95 95 N 7 11 30.23 1024 2 2 0.06 1.52
8:58 am 08:58 Mostly Cloudy with Light Snow 32 0 31 -0.6 96 96 N 5 7 30.24 1024 1 1 0.06 1.52
9:58 am 09:58 Mostly Cloudy with Light Rain/Snow 33 0.6 31 -0.4 93 93 Calm 30.25 1024 2 2 0.00 0.00
10:58 am 10:58 Mostly Cloudy with Light Rain/Snow 34 1.3 31 -0.4 89 89 S 5 7 30.26 1025 9 14 0.01 0.25
11:58 am 11:58 Mostly Cloudy 37 2.7 32 -0.2 81 81 SSE 5 7 30.24 1024 10 16 0.00 0.00
12:58 pm 12:58 Mostly Cloudy 39 3.8 34 0.9 82 82 Calm 30.23 1024 10 16 0.01 0.25
1:58 pm 13:58 Mostly Cloudy with Light Showers 39 3.8 35 1.4 85 85 NE 13 20 30.23 1024 6 10 0.00 0.00
2:58 pm 14:58 Mostly Cloudy with Light Snow 34 0.9 33 0.3 96 96 E 8 13 30.25 1025 1 1 0.08 2.03
3:58 pm 15:58 Mostly Cloudy with Light Rain 36 2.3 35 1.8 97 97 E 10 17 30.22 1023 10 16 0.01 0.25
4:58 pm 16:58 Mostly Cloudy with Light Rain 37 3 34 1.2 88 88 ESE 8 13 30.22 1023 10 16 0.00 0.00
5:58 pm 17:58 Mostly Cloudy with Light Rain 38 3.1 34 1 86 86 SE 8 13 30.22 1023 10 16 0.00 0.00

Powered by AerisWeather